Location: Boiro
(42.6475°N, 8.8834°W)
Time: 02:46:21
(UTC+01:00)

Vanguard 2 - Pass Details

Date: 04 December 2021
Orbit: 553 x 2936 km, 32.9° (Epoch: 20 January)

Event Time Altitude Azimuth Distance (km) Brightness Sun altitude
Rises 17:04:40 0° 255° (WSW) 3,208 12.1 7.8°
Reaches altitude 10° 17:06:52 10° 246° (WSW) 2,477 12.0 7.5°
Maximum altitude 17:12:16 37° 180° (S) 1,677 9.8 6.7°
Drops below altitude 10° 17:20:41 10° 118° (ESE) 3,889 10.9 5.5°
Sets 17:25:03 0° 111° (ESE) 5,304 11.5 4.9°
